Tracking 19817 objects as of 19-Aug-2019
HD Live streaming from Space Station
objects crossing your sky now

COSMOS 2251 DEB

Track COSMOS 2251 DEB now!
10-day predictions


NORAD ID: 35065
Int'l Code: 1993-036AHU
Perigee: 754.0 km
Apogee: 783.4 km
Inclination: 74.0 °
Period: 100.1 minutes
Semi major axis: 7139 km
RCS: 0.014 m2 (small)
Launch date: June 16, 1993
Source: Commonwealth of Independent States (former USSR) (CIS)
Launch site: PLESETSK MISSILE AND SPACE COMPLEX (PKMTR)

Note: This is SATELLITE DEBRIS
aabbcc
Your satellite tracking list
Your tracking list is empty




NASA's NSSDC Master Catalog

Two Line Element Set (TLE):
1 35065U 93036AHU 19228.10019382  .00000161  00000-0  60543-4 0  9996
2 35065  74.0241 154.1389 0020650 120.6539 239.6655 14.39073980541548
Source of the keplerian elements: AFSPC